Starlink 31292

operational
NORAD ID: 59081 Int'l Des: 2024-041 Owner: SPXS Country: US Constellation: starlink
LEOCIRCULAR

关于 Starlink 31292

正在加载描述...

实时位置

正在加载3D地球...

即将过境

高度历史

Altitude vs Time

uPlot chart will show altitude changes over time

两行轨道根数

1 59081U 24041H 25351.23134286 .00000187 00000-0 16311-4 0 9991
2 59081 43.0012 56.1252 0001353 278.3409 81.7289 15.27583774101658
Epoch: Dec 17, 2025 • Age: 8 hours

当前状态

高度 482.6 km
速度 7.63 km/s
星下点 19.31°N, 146.89°E
发射日期 Feb 29, 2024
运行时间 1.7 years
类型 internet

技术详情

分类 Payload
质量 730.00 kg
干质量 700.00 kg
总质量 730.00 kg
长度 0.30 m
直径 4.10 m
跨度 29.00 m
形状 Box + pan
制造商 SPXS
平台类型 Starlink V2M
阶段状态 In Orbit
所有者/国家 SPXS/US

大型星座

Loading constellations...